Location: Chevoux
(46.3801°N, 4.9476°E)
Time: 12:39:33
(UTC+00:00)

SR - Visible Passes

Search period start: 13 May 2021 00:00
Search period end: 23 May 2021 00:00
Orbit: 573 x 882 km, 66.7° (Epoch: 12 May)

Date Brightness Start Highest point End Pass type
(mag) Time Alt. Az. Time Alt. Az. Time Alt. Az.
13 May ? 01:09:22 38° SSE 01:11:10 52° ESE 01:16:56 10° NE visible
13 May ? 02:48:45 13° WSW 02:53:33 36° NW 02:59:00 10° NNE visible
14 May ? 00:20:46 28° SE 00:21:38 29° ESE 00:26:40 10° NE visible
14 May ? 02:00:09 26° WSW 02:03:27 57° NW 02:09:20 10° NNE visible
14 May ? 23:32:09 16° ESE 23:32:18 16° ESE 23:35:41 10° ENE visible
15 May ? 01:11:32 44° SSW 01:13:34 86° ESE 01:19:33 10° NE visible
15 May ? 02:51:37 10° W 02:56:25 25° NW 03:01:15 10° NNE visible
16 May ? 00:22:51 45° SE 00:23:51 49° ESE 00:29:33 10° NE visible
16 May ? 02:02:14 17° WSW 02:06:10 37° NW 02:11:40 10° NNE visible
16 May ? 23:34:08 28° ESE 23:34:20 28° ESE 23:39:15 10° NE visible
17 May ? 01:13:31 33° WSW 01:16:05 60° NW 01:22:00 10° NNE visible
17 May ? 02:55:27 10° WNW 02:59:27 18° NNW 03:03:27 10° NNE visible
17 May ? 22:45:22 15° E 22:45:22 15° E 22:48:09 10° ENE visible
18 May ? 00:24:45 53° SSW 00:26:13 82° ESE 00:32:12 10° NE visible
18 May ? 02:04:09 10° W 02:09:01 26° NW 02:13:56 10° NNE visible
18 May ? 23:35:55 45° SE 23:36:32 47° ESE 23:42:11 10° NE visible
19 May ? 01:15:18 21° WSW 01:18:47 39° NW 01:24:20 10° NNE visible
19 May ? 02:59:37 10° NW 03:02:36 14° NNW 03:05:33 10° N visible
19 May ? 22:47:04 26° ESE 22:47:04 26° ESE 22:51:50 10° NE visible
20 May ? 00:26:25 37° WSW 00:28:45 63° NW 00:34:39 10° NNE visible
20 May ? 02:07:56 10° WNW 02:12:02 19° NNW 02:16:07 10° NNE visible
20 May ? 21:58:08 14° E 21:58:08 14° E 22:00:34 10° ENE visible
20 May ? 23:37:30 54° SSW 23:38:52 78° ESE 23:44:51 10° NE visible
21 May ? 01:16:51 11° W 01:21:38 27° NW 01:26:36 10° NNE visible
21 May ? 03:04:10 10° NNW 03:05:51 11° NNW 03:07:33 10° N visible
21 May ? 22:48:30 42° SE 22:49:12 44° ESE 22:54:49 10° NE visible
22 May ? 00:27:51 21° WSW 00:31:25 41° NW 00:37:00 10° NNE visible
22 May ? 02:12:03 10° NW 02:15:10 14° NNW 02:18:14 10° N visible
22 May ? 21:59:25 24° ESE 21:59:42 25° ESE 22:04:23 10° NE visible
22 May ? 23:38:46 34° SW 23:41:22 67° NW 23:47:19 10° NNE visible
